Regional Weather Roundup
Issued by NWS

Home | Current Version | Previous Version | Text Only | Print | Product List | Glossary On
Versions: 1 2 3 4 5 6 7 8 9 10 11 12 13 14 15 16 17 18 19 20 21 22 23 24 25 26 27 28 29 30 31 32 33 34 35 36 37 38 39 40 41 42 43 44 45 46 47 48 49 50
335
ASUS43 KDTX 240210
RWRMI
MICHIGAN HOURLY REGIONAL WEATHER ROUNDUP
NATIONAL WEATHER SERVICE DETROIT/PONTIAC MI
1000 PM EDT SAT SEP 23 2017

NOTE: "FAIR" INDICATES FEW OR NO CLOUDS BELOW 12,000 FEET WITH NO
SIGNIFICANT WEATHER AND/OR OBSTRUCTION TO VISIBILITY.

MIZ047>049-052>055-059>063-066>070-074>076-081>083-240300-
SOUTHEAST LOWER MICHIGAN

CITY           SKY/WX    TMP DP  RH WIND       PRES   REMARKS
ADRIAN           N/A     72  60  66 CALM      30.13R
ALMA           CLEAR     78  58  50 CALM      30.10S
ANN ARBOR      CLEAR     66  62  87 CALM      30.12S
BAD AXE        CLEAR     75  64  67 SE3       30.12S
CARO           CLEAR     69  65  86 CALM      30.10S
DETROIT CITY   CLEAR     76  64  66 S3        30.11S
DETROIT        CLEAR     74  64  71 CALM      30.13R
FLINT          CLEAR     77  62  59 S6        30.11S
GROSSE ILE     CLEAR     72  70  95 CALM      30.11R
HILLSDALE      CLEAR     72  59  64 SE5       30.13S
HOWELL         CLEAR     73  63  68 SE3       30.12S

CITY           SKY/WX    TMP DP  RH WIND       PRES   REMARKS
JACKSON        CLEAR     78  60  53 SE5       30.12S
LAMBERTVILLE   CLEAR     67  64  89 CALM      30.11S
LANSING        CLEAR     79  59  50 S7        30.12R
LAPEER         FAIR      69  66  91 CALM      30.12S
MASON          CLEAR     75  62  62 S5        30.12S
MONROE         CLEAR     68  65  89 CALM      30.11S
MT. CLEMENS    CLEAR     71  65  82 CALM      30.09S
PONTIAC        CLEAR     75  65  70 CALM      30.12R
PORT HOPE        N/A     76  65  68 S5        30.09S
PORT HURON     CLEAR     70  66  88 CALM      30.12S
TRI CITIES     CLEAR     81  64  56 S8        30.10R
MIDLAND        FAIR      71  66  85 CALM      30.09R
TROY           CLEAR     78  63  58 SW3       30.14R
SAGINAW HB     CLEAR     73  61  64 SE6       30.09S
$$
MIZ043>046-050>051-056>058-064>065-071>073-077>080-240300-
SOUTHWEST LOWER MICHIGAN

CITY           SKY/WX    TMP DP  RH WIND       PRES   REMARKS
BATTLE CREEK   CLEAR     77  63  61 SE3       30.12R
BENTON HARBOR  CLEAR     70  67  90 E3        30.07S
BIG RAPIDS     CLEAR     71  67  84 CALM      30.10R
COLDWATER      CLEAR     75  62  63 CALM      30.12R
FREMONT        FAIR      74  66  76 CALM      30.08S
HOLLAND        CLEAR     70  65  84 CALM      30.08R
GRAND RAPIDS   CLEAR     75  62  64 SE7       30.09R
IONIA          FAIR      76  58  52 SE6       30.09S
KALAMAZOO      CLEAR     73  62  68 CALM      30.10S
LUDINGTON      CLEAR     67  66  94 CALM      30.06S
MARSHALL       CLEAR     70  61  73 CALM      30.11S
MUSKEGON       CLEAR     74  68  81 CALM      30.08R
SOUTH HAVEN    CLEAR     70  67  90 CALM      30.07S
$$
MIZ016>042-240300-
NORTHERN LOWER MICHIGAN

CITY           SKY/WX    TMP DP  RH WIND       PRES   REMARKS
ALPENA         CLEAR     76  71  85 SW3       30.08R
BEAVER ISLAND  CLEAR     74  64  72 SW9       30.06R
BELLAIRE       CLEAR     68  66  93 CALM      30.07S
CADILLAC       CLEAR     70  64  81 CALM      30.11S
CHARLEVOIX     CLEAR     78  64  60 SW5       30.09R
FRANKFORT      CLEAR     72  67  87 CALM      30.07R
GAYLORD        CLEAR     73  67  81 CALM      30.11S
GRAYLING       CLEAR     68  64  86 CALM      30.12S
HARBOR SPRINGS CLEAR     70  66  88 CALM      30.06S
HOUGHTON LAKE  CLEAR     72  66  81 S3        30.11S
MANISTEE       CLEAR     69  67  93 CALM      30.06S
OSCODA         CLEAR     74  66  74 S6        30.08S
PELLSTON       CLEAR     67  65  93 CALM      30.06S
ROGERS CITY    CLEAR     72  68  89 CALM      30.07S
TRAVERSE CITY  PTCLDY    74  67  78 CALM      30.05S
$$
MIZ007>008-015-240300-
EASTERN UPPER MICHIGAN

CITY           SKY/WX    TMP DP  RH WIND       PRES   REMARKS
KINROSS        CLEAR     71  65  81 S5        30.06S
MACKINAC ISLAN CLEAR     76  62  62 SW7       30.05S
NEWBERRY       CLEAR     70  67  93 SW8       30.04S
S. S. MARIE    CLEAR     71  66  84 CALM      30.05R
MUNISING         N/A     75  70  84 SW6       30.01S
$$
MIZ004>006-011>014-085-240300-
CENTRAL UPPER MICHIGAN

CITY           SKY/WX    TMP DP  RH WIND       PRES   REMARKS
MANISTIQUE     CLEAR     67  62  81 S7        30.04R
ESCANABA       CLEAR     75  67  76 S7        30.02R
MENOMINEE      CLEAR     76  67  73 S5        30.03S
SAWYER-GWINN   CLEAR     73  66  78 S7        30.04R
$$
MIZ001>003-009>011-084-240300-
WESTERN UPPER MICHIGAN

CITY           SKY/WX    TMP DP  RH WIND       PRES   REMARKS
IRON MOUNTAIN  CLOUDY    72  65  78 S5        30.03R
HOUGHTON       PTCLDY    71  66  84 SE3       30.00R
COPPER HARBOR    N/A     70  67  90 CALM      29.98R
IRONWOOD       CLOUDY    78  69  73 S7        30.00S
$$

ABBREVIATIONS USED IN REMARKS
   TC - TEMPERATURE IN CELSIUS
  WCI - WIND CHILL INDEX
   HX - HEAT INDEX
  VSB - VISIBILITY





USA.gov is the U.S. government's official web portal to all federal, state and local government web resources and services.